Location: Unspecified
(38.9820°N, 94.4650°W)
Time: 22:59:07
(UTC-05:00)

Cosmos 1674 - Visible Passes

Search period start: 22 April 2018 00:00
Search period end: 02 May 2018 00:00
Orbit: 496 x 522 km, 82.5° (Epoch: 22 April)

Date Brightness Start Highest point End Pass type
(mag) Time Alt. Az. Time Alt. Az. Time Alt. Az.
23 Apr 3.9 05:59:23 10° SSE 06:03:02 46° E 06:06:40 10° NNE visible
24 Apr 4.5 05:42:30 10° SSE 05:45:58 35° E 05:49:27 10° NNE visible
25 Apr 4.9 05:25:44 10° SSE 05:28:56 27° E 05:32:08 10° NNE visible
26 Apr 5.3 05:09:02 10° SE 05:11:54 21° E 05:14:45 10° NE visible
27 Apr 5.6 04:52:31 10° SE 04:54:53 16° E 04:57:14 10° NE visible
28 Apr 5.7 04:36:17 10° ESE 04:37:52 12° E 04:39:27 10° ENE visible
30 Apr 2.6 05:35:04 10° SSW 05:38:48 65° W 05:42:32 10° N visible
01 May 2.6 05:17:56 10° S 05:21:41 87° W 05:25:28 10° N visible
